Torna al catalogo

STARLINK-30455

AttivoComunicazioniVLEO
NORAD 57942·PAYLOAD·🇺🇸 United States

Lanciato Sep 25, 2023 da Vandenberg Space Force Base

Loading…

Prossimi Passaggi (prossime 24 ore)

TLE

AggiornatoSource: CelesTrak SupGP

Epoca: Sep 15, 2026, 02:30 UTC

1 57942C 23148H   26258.10465278 -.00039682  00000+0 -12040-2 0  2587
2 57942  53.1573 222.9964 0001327  88.1072 199.5215 15.33572501    11

Traccia STARLINK-30455 in tempo reale con AllMySat

Download on the App Store